When you browse on this site, cookies collect data to enhance your experience and personalize the content and advertising you see.
Visit our Privacy Policy to learn more. By continuing to use the site, you agree to this use of cookies and data.
  • în România
  • Lista ţărilor
  • Pe 7 zile
  • Temperatura apei
  • Hartă satelitară
  • Meteo pe hartă
  • Widget-uri
  • user-avatar
    Intrare

    Meteo pe oră la Naydenka

    Astăzi, 26 Aprilie, Vineri

    Timp Temperatura Precipitaţii Vânt Presiune Umiditate
    00:00 +14°C° 0 mm 1 m/s 752 mmHg 52%
    01:00 +14°C° 0 mm 1 m/s 752 mmHg 54%
    02:00 +13°C° 0 mm 1 m/s 752 mmHg 56%
    03:00 +13°C° 0 mm 1 m/s 752 mmHg 59%
    04:00 +12°C° 0 mm 1 m/s 752 mmHg 62%
    05:00 +12°C° 0 mm 1 m/s 752 mmHg 65%
    06:00 +13°C° 0 mm 1 m/s 752 mmHg 62%
    07:00 +15°C° 0 mm 1 m/s 751 mmHg 58%
    08:00 +16°C° 0 mm 1 m/s 751 mmHg 55%
    09:00 +19°C° 0 mm 1 m/s 751 mmHg 50%
    10:00 +21°C° 0 mm 1 m/s 751 mmHg 45%
    11:00 +22°C° 0 mm 1 m/s 751 mmHg 41%
    12:00 +23°C° 0 mm 1 m/s 751 mmHg 38%
    13:00 +23°C° 0 mm 1 m/s 750 mmHg 36%
    14:00 +24°C° 0 mm 1 m/s 750 mmHg 34%
    15:00 +23°C° 0 mm 1 m/s 749 mmHg 38%
    16:00 +22°C° 0 mm 1 m/s 749 mmHg 42%
    17:00 +21°C° 0 mm 1 m/s 748 mmHg 46%
    18:00 +19°C° 0 mm 1 m/s 748 mmHg 51%
    19:00 +18°C° 0 mm 1 m/s 748 mmHg 56%
    20:00 +15°C° 0 mm 1 m/s 748 mmHg 61%
    21:00 +15°C° 0.2 mm 2 m/s 748 mmHg 64%
    22:00 +14°C° 0.2 mm 2 m/s 747 mmHg 67%
    23:00 +13°C° 0.2 mm 2 m/s 747 mmHg 71%

    Mâine, 27 Aprilie, Sâmbătă

    Timp Temperatura Precipitaţii Vânt Presiune Umiditate
    00:00 +13°C° 0.1 mm 1 m/s 747 mmHg 72%
    01:00 +13°C° 0.1 mm 1 m/s 747 mmHg 73%
    02:00 +13°C° 0.1 mm 1 m/s 747 mmHg 75%
    03:00 +13°C° 0 mm 1 m/s 746 mmHg 74%
    04:00 +12°C° 0 mm 1 m/s 746 mmHg 74%
    05:00 +12°C° 0 mm 1 m/s 745 mmHg 73%
    06:00 +13°C° 0 mm 1 m/s 745 mmHg 69%
    07:00 +15°C° 0 mm 1 m/s 745 mmHg 65%
    08:00 +16°C° 0 mm 2 m/s 744 mmHg 61%
    09:00 +18°C° 0 mm 2 m/s 744 mmHg 53%
    10:00 +20°C° 0 mm 2 m/s 744 mmHg 46%
    11:00 +21°C° 0 mm 3 m/s 743 mmHg 39%
    12:00 +21°C° 0 mm 3 m/s 743 mmHg 40%
    13:00 +21°C° 0 mm 2 m/s 742 mmHg 41%
    14:00 +21°C° 0 mm 2 m/s 742 mmHg 42%
    15:00 +20°C° 0 mm 2 m/s 741 mmHg 46%
    16:00 +20°C° 0 mm 2 m/s 741 mmHg 50%
    17:00 +19°C° 0 mm 2 m/s 741 mmHg 53%
    18:00 +17°C° 0.2 mm 2 m/s 741 mmHg 64%
    19:00 +14°C° 0.2 mm 3 m/s 741 mmHg 74%
    20:00 +12°C° 0.2 mm 4 m/s 741 mmHg 85%
    21:00 +11°C° 0 mm 4 m/s 742 mmHg 84%
    22:00 +10°C° 0 mm 4 m/s 742 mmHg 83%
    23:00 +8°C° 0 mm 5 m/s 743 mmHg 82%

    Poimâine, 28 Aprilie, Duminică

    Timp Temperatura Precipitaţii Vânt Presiune Umiditate
    00:00 +7°C° 0 mm 5 m/s 743 mmHg 80%
    01:00 +5°C° 0 mm 5 m/s 744 mmHg 79%
    02:00 +3°C° 0 mm 5 m/s 745 mmHg 77%
    03:00 +2°C° 0 mm 5 m/s 745 mmHg 75%
    04:00 0°C° 0 mm 5 m/s 746 mmHg 74%
    05:00 -1°C° 0 mm 5 m/s 746 mmHg 72%
    06:00 0°C° 0 mm 5 m/s 747 mmHg 66%
    07:00 0°C° 0 mm 5 m/s 748 mmHg 59%
    08:00 +1°C° 0 mm 5 m/s 748 mmHg 52%
    09:00 +2°C° 0 mm 5 m/s 749 mmHg 47%
    10:00 +3°C° 0 mm 5 m/s 749 mmHg 43%
    11:00 +5°C° 0 mm 4 m/s 749 mmHg 38%
    12:00 +6°C° 0 mm 4 m/s 749 mmHg 37%
    13:00 +7°C° 0 mm 4 m/s 750 mmHg 36%
    14:00 +7°C° 0 mm 4 m/s 750 mmHg 35%
    15:00 +7°C° 0 mm 4 m/s 750 mmHg 35%
    16:00 +6°C° 0 mm 4 m/s 750 mmHg 35%
    17:00 +6°C° 0 mm 4 m/s 750 mmHg 35%
    18:00 +5°C° 0 mm 3 m/s 751 mmHg 40%
    19:00 +3°C° 0 mm 3 m/s 751 mmHg 46%
    20:00 +3°C° 0 mm 2 m/s 752 mmHg 51%
    21:00 +2°C° 0 mm 2 m/s 752 mmHg 53%
    22:00 +1°C° 0 mm 2 m/s 753 mmHg 56%
    23:00 -1°C° 0 mm 2 m/s 753 mmHg 58%

    29 Aprilie, Luni

    Timp Temperatura Precipitaţii Vânt Presiune Umiditate
    00:00 -1°C° 0 mm 2 m/s 753 mmHg 60%
    01:00 -2°C° 0 mm 2 m/s 754 mmHg 63%
    02:00 -3°C° 0 mm 2 m/s 754 mmHg 65%
    03:00 -2°C° 0 mm 2 m/s 754 mmHg 64%
    04:00 -2°C° 0 mm 2 m/s 754 mmHg 63%
    05:00 -2°C° 0 mm 2 m/s 755 mmHg 61%
    06:00 -1°C° 0 mm 2 m/s 755 mmHg 53%
    07:00 +2°C° 0 mm 2 m/s 755 mmHg 45%
    08:00 +4°C° 0 mm 2 m/s 755 mmHg 37%
    09:00 +5°C° 0 mm 2 m/s 755 mmHg 34%
    10:00 +6°C° 0 mm 2 m/s 754 mmHg 31%
    11:00 +8°C° 0 mm 2 m/s 754 mmHg 29%
    12:00 +8°C° 0 mm 2 m/s 754 mmHg 28%
    13:00 +10°C° 0 mm 1 m/s 753 mmHg 27%
    14:00 +11°C° 0 mm 1 m/s 753 mmHg 27%
    15:00 +10°C° 0 mm 1 m/s 752 mmHg 28%
    16:00 +10°C° 0 mm 1 m/s 752 mmHg 29%
    17:00 +9°C° 0 mm 1 m/s 751 mmHg 30%
    18:00 +8°C° 0 mm 1 m/s 751 mmHg 35%
    19:00 +6°C° 0 mm 1 m/s 751 mmHg 41%
    20:00 +4°C° 0 mm 1 m/s 751 mmHg 47%
    21:00 +4°C° 0 mm 1 m/s 751 mmHg 49%
    22:00 +3°C° 0 mm 1 m/s 751 mmHg 52%
    23:00 +3°C° 0 mm 1 m/s 751 mmHg 54%

    30 Aprilie, Marţi

    Timp Temperatura Precipitaţii Vânt Presiune Umiditate
    00:00 +2°C° 0 mm 1 m/s 750 mmHg 56%
    01:00 +2°C° 0 mm 1 m/s 750 mmHg 59%
    02:00 -1°C° 0 mm 2 m/s 750 mmHg 61%
    03:00 +1°C° 0 mm 1 m/s 750 mmHg 61%
    04:00 +1°C° 0 mm 1 m/s 749 mmHg 61%
    05:00 +1°C° 0 mm 1 m/s 749 mmHg 61%
    06:00 +4°C° 0 mm 1 m/s 749 mmHg 54%
    07:00 +5°C° 0 mm 2 m/s 748 mmHg 47%
    08:00 +7°C° 0 mm 2 m/s 748 mmHg 40%
    09:00 +8°C° 0 mm 2 m/s 748 mmHg 37%
    10:00 +9°C° 0 mm 2 m/s 747 mmHg 33%
    11:00 +12°C° 0 mm 2 m/s 747 mmHg 30%
    12:00 +12°C° 0 mm 2 m/s 746 mmHg 30%
    13:00 +12°C° 0 mm 2 m/s 746 mmHg 31%
    14:00 +13°C° 0 mm 2 m/s 745 mmHg 31%
    15:00 +12°C° 0 mm 2 m/s 745 mmHg 35%
    16:00 +12°C° 0 mm 2 m/s 745 mmHg 39%
    17:00 +10°C° 0 mm 2 m/s 744 mmHg 43%
    18:00 +9°C° 0.1 mm 2 m/s 744 mmHg 53%
    19:00 +7°C° 0.1 mm 2 m/s 744 mmHg 63%
    20:00 +5°C° 0.1 mm 2 m/s 744 mmHg 73%
    21:00 +5°C° 0.1 mm 2 m/s 744 mmHg 78%
    22:00 +4°C° 0.1 mm 2 m/s 744 mmHg 83%
    23:00 +3°C° 0.1 mm 2 m/s 744 mmHg 87%

    1 Mai, Miercuri

    Timp Temperatura Precipitaţii Vânt Presiune Umiditate
    00:00 +2°C° 0 mm 2 m/s 744 mmHg 90%
    01:00 +1°C° 0 mm 2 m/s 744 mmHg 92%
    02:00 +1°C° 0 mm 2 m/s 744 mmHg 95%
    03:00 +1°C° 0 mm 2 m/s 744 mmHg 94%
    04:00 +1°C° 0 mm 2 m/s 744 mmHg 92%
    05:00 +1°C° 0 mm 2 m/s 744 mmHg 91%
    06:00 +3°C° 0 mm 2 m/s 744 mmHg 83%
    07:00 +4°C° 0 mm 2 m/s 744 mmHg 76%
    08:00 +5°C° 0 mm 2 m/s 744 mmHg 69%
    09:00 +6°C° 0 mm 2 m/s 744 mmHg 62%
    10:00 +7°C° 0 mm 2 m/s 744 mmHg 56%
    11:00 +8°C° 0 mm 2 m/s 743 mmHg 49%
    12:00 +10°C° 0 mm 1 m/s 743 mmHg 46%
    13:00 +11°C° 0 mm 1 m/s 743 mmHg 43%
    14:00 +12°C° 0 mm 1 m/s 742 mmHg 40%
    15:00 +11°C° 0 mm 1 m/s 742 mmHg 41%
    16:00 +10°C° 0 mm 0 m/s 741 mmHg 41%
    17:00 +10°C° 0 mm 0 m/s 741 mmHg 41%
    18:00 +9°C° 0 mm 1 m/s 741 mmHg 48%
    19:00 +7°C° 0 mm 1 m/s 741 mmHg 54%
    20:00 +6°C° 0 mm 1 m/s 740 mmHg 60%
    21:00 +5°C° 0 mm 1 m/s 740 mmHg 63%
    22:00 +4°C° 0 mm 1 m/s 740 mmHg 65%
    23:00 +4°C° 0 mm 1 m/s 739 mmHg 67%
    Arată mai mult